WD9EKA Weather Reports


Display with metric or nautical units.
time (UTC)temp
F
wind
direction
speed
MPH
gust
MPH
rain 1hr
in
rain 24hr
in
rain mn
in
humidity
%
barometer
mb
20260906214246 82 118 2.0 4.0 0.00 0.00 0.00 54 1010.5
20260906213725 83 128 1.0 2.0 0.00 0.00 0.00 52 1010.7
20260906213206 83 94 1.0 2.0 0.00 0.00 0.00 53 1010.7
20260906212646 83 104 0.0 1.0 0.00 0.00 0.00 53 1010.8
20260906212125 83 34 3.0 5.0 0.00 0.00 0.00 52 1010.5
20260906211605 84 123 2.0 3.0 0.00 0.00 0.00 54 1010.8
20260906211045 84 190 0.0 0.0 0.00 0.00 0.00 54 1010.9
20260906210525 84 89 0.0 2.0 0.00 0.00 0.00 55 1010.7
20260906210006 84 103 0.0 1.0 0.00 0.00 0.00 57 1010.8
20260906205446 84 26 2.0 3.0 0.00 0.00 0.00 56 1010.9
20260906204925 84 153 0.0 1.0 0.00 0.00 0.00 56 1010.8
20260906204406 84 196 0.0 1.0 0.00 0.00 0.00 57 1010.8
20260906203846 84 178 0.0 0.0 0.00 0.00 0.00 57 1010.9
20260906203326 84 222 0.0 0.0 0.00 0.00 0.00 57 1010.8
20260906202806 84 153 3.0 5.0 0.00 0.00 0.00 59 1010.9
20260906202245 83 117 2.0 4.0 0.00 0.00 0.00 61 1011.0
20260906201726 83 132 3.0 3.0 0.00 0.00 0.00 57 1011.1
20260906201206 83 113 3.0 5.0 0.00 0.00 0.00 58 1011.1
20260906200645 83 135 2.0 4.0 0.00 0.00 0.00 60 1010.8
20260906200126 83 117 2.0 3.0 0.00 0.00 0.00 59 1011.1
20260906195606 83 101 1.0 2.0 0.00 0.00 0.00 61 1011.1
20260906195045 84 135 1.0 2.0 0.00 0.00 0.00 63 1011.1
20260906194526 84 261 1.0 2.0 0.00 0.00 0.00 58 1011.3
20260906194006 83 332 5.0 6.0 0.00 0.00 0.00 59 1011.2
20260906193445 82 159 3.0 4.0 0.00 0.00 0.00 61 1010.8
20260906192925 82 109 2.0 4.0 0.00 0.00 0.00 60 1011.3
20260906192350 82 97 2.0 2.0 0.00 0.00 0.00 62 1011.3
20260906191829 83 96 7.0 9.0 0.00 0.00 0.00 58 1011.3
20260906191309 83 106 0.0 1.0 0.00 0.00 0.00 61 1011.2
20260906190733 83 227 2.0 3.0 0.00 0.00 0.00 62 1011.4
20260906190214 83 180 2.0 3.0 0.00 0.00 0.00 58 1011.3
20260906185654 83 79 1.0 3.0 0.00 0.00 0.00 60 1011.2
20260906185134 82 54 0.0 2.0 0.00 0.00 0.00 63 1011.3
20260906184613 82 59 1.0 3.0 0.00 0.00 0.00 63 1011.3
20260906184054 82 22 2.0 3.0 0.00 0.00 0.00 59 1011.4
20260906183533 82 208 5.0 6.0 0.00 0.00 0.00 59 1011.4
20260906183014 82 56 4.0 5.0 0.00 0.00 0.00 59 1011.3
20260906182454 82 154 2.0 3.0 0.00 0.00 0.00 60 1011.7
20260906181933 82 131 3.0 4.0 0.00 0.00 0.00 60 1011.4
20260906181333 82 64 2.0 3.0 0.00 0.00 0.00 58 1011.5
20260906180733 82 7 1.0 2.0 0.00 0.00 0.00 64 1011.8
20260906180133 82 254 2.0 5.0 0.00 0.00 0.00 63 1011.9
20260906175533 81 66 1.0 2.0 0.00 0.00 0.00 66 1011.9
20260906174933 82 32 2.0 3.0 0.00 0.00 0.00 61 1011.7
20260906174422 81 188 2.0 3.0 0.00 0.00 0.00 61 1012.0
20260906173902 82 65 4.0 5.0 0.00 0.00 0.00 63 1012.2
20260906173342 82 350 3.0 4.0 0.00 0.00 0.00 61 1012.0
20260906172733 82 29 3.0 5.0 0.00 0.00 0.00 64 1012.1
20260906172133 82 23 1.0 2.0 0.00 0.00 0.00 64 1011.9
20260906171533 82 119 4.0 5.0 0.00 0.00 0.00 63 1012.0
20260906170933 82 317 2.0 4.0 0.00 0.00 0.00 64 1012.1
20260906170422 81 124 3.0 5.0 0.00 0.00 0.00 66 1012.0
20260906165902 81 200 2.0 3.0 0.00 0.00 0.00 67 1012.1
20260906165333 80 36 1.0 3.0 0.00 0.00 0.00 67 1012.1
20260906164733 81 260 2.0 3.0 0.00 0.00 0.00 66 1012.2
20260906164134 80 283 2.0 4.0 0.00 0.00 0.00 66 1012.1
20260906163533 81 146 0.0 1.0 0.00 0.00 0.00 67 1011.9
20260906162934 81 108 0.0 2.0 0.00 0.00 0.00 68 1012.2
20260906162422 80 315 0.0 1.0 0.00 0.00 0.00 68 1012.2
20260906161902 81 56 1.0 2.0 0.00 0.00 0.00 70 1012.1
20260906161334 79 10 2.0 3.0 0.00 0.00 0.00 70 1012.0
20260906160733 80 95 4.0 4.0 0.00 0.00 0.00 70 1012.1
20260906160133 79 295 0.0 1.0 0.00 0.00 0.00 71 1012.1
20260906155606 78 100 3.0 4.0 0.00 0.00 0.00 71 1012.3
20260906155046 79 130 5.0 6.0 0.00 0.00 0.00 69 1012.0
20260906154533 79 110 0.0 0.0 0.00 0.00 0.00 72 1012.0
20260906153933 79 0 1.0 3.0 0.00 0.00 0.00 71 1012.3
20260906153333 79 35 1.0 2.0 0.00 0.00 0.00 72 1012.1
20260906152822 78 136 1.0 2.0 0.00 0.00 0.00 74 1012.2
20260906152306 78 114 3.0 5.0 0.00 0.00 0.00 73 1012.3
20260906151742 77 101 0.0 1.0 0.00 0.00 0.00 74 1012.2
20260906151234 76 134 1.0 2.0 0.00 0.00 0.00 77 1012.2
20260906150633 76 180 1.0 3.0 0.00 0.00 0.00 75 1012.3
20260906150033 76 132 2.0 3.0 0.00 0.00 0.00 75 1011.9
20260906145518 77 338 3.0 4.0 0.00 0.00 0.00 76 1012.3
20260906144958 77 83 0.0 2.0 0.00 0.00 0.00 75 1012.5
20260906144438 75 115 5.0 8.0 0.00 0.00 0.00 75 1012.3
20260906143834 76 104 4.0 8.0 0.00 0.00 0.00 74 1012.1
20260906143233 75 120 0.0 1.0 0.00 0.00 0.00 77 1012.1
20260906142633 75 92 4.0 4.0 0.00 0.00 0.00 76 1012.0
20260906142034 75 330 2.0 2.0 0.00 0.00 0.00 76 1012.1
20260906141518 74 78 0.0 1.0 0.00 0.00 0.00 77 1011.9
20260906140958 74 59 3.0 4.0 0.00 0.00 0.00 76 1012.1
20260906140433 74 102 1.0 2.0 0.00 0.00 0.00 78 1012.1
20260906135833 74 78 1.0 2.0 0.00 0.00 0.00 77 1012.2
20260906135233 73 93 1.0 2.0 0.00 0.00 0.00 79 1012.1
20260906134718 73 61 0.0 2.0 0.00 0.00 0.00 79 1012.2
20260906134158 72 51 0.0 0.0 0.00 0.00 0.00 79 1012.2
20260906133635 73 89 0.0 0.0 0.00 0.00 0.00 78 1012.2
20260906133133 73 228 0.0 1.0 0.00 0.00 0.00 80 1012.2
20260906132533 72 101 2.0 4.0 0.00 0.00 0.00 80 1011.9
20260906131933 72 112 1.0 2.0 0.00 0.00 0.00 82 1011.8
20260906131430 72 124 4.0 5.0 0.00 0.00 0.00 82 1011.9
20260906130910 73 125 1.0 2.0 0.00 0.00 0.00 83 1011.8
20260906130350 72 118 0.0 0.0 0.00 0.00 0.00 85 1011.8
20260906125830 72 104 0.0 0.0 0.00 0.00 0.00 85 1011.6
20260906125310 71 354 2.0 3.0 0.00 0.00 0.00 85 1011.9
20260906124750 72 135 0.0 0.0 0.00 0.00 0.00 87 1011.9
20260906124230 71 106 0.0 1.0 0.00 0.00 0.00 87 1011.6
20260906123711 71 95 0.0 1.0 0.00 0.00 0.00 90 1011.6
20260906123150 70 112 0.0 0.0 0.00 0.00 0.00 93 1011.7
20260906122630 69 112 0.0 0.0 0.00 0.00 0.00 95 1011.1
20260906122110 68 169 0.0 0.0 0.00 0.00 0.00 97 1011.3
20260906121550 68 171 0.0 0.0 0.00 0.00 0.00 97 1011.3
20260906121030 69 292 0.0 0.0 0.00 0.00 0.00 98 1011.0
20260906120510 69 256 0.0 0.0 0.00 0.00 0.00 98 1011.0
20260906115950 69 167 0.0 0.0 0.00 0.00 0.00 98 1011.1
20260906115430 69 235 0.0 0.0 0.00 0.00 0.00 98 1010.8
20260906114910 69 70 0.0 0.0 0.00 0.00 0.00 98 1010.9
20260906114350 70 100 0.0 0.0 0.00 0.00 0.00 98 1010.6
20260906113830 70 108 0.0 0.0 0.00 0.00 0.00 98 1010.7
20260906113310 70 162 0.0 0.0 0.00 0.00 0.00 98 1010.3
20260906112750 70 163 0.0 0.0 0.00 0.00 0.00 98 1010.5
20260906112230 70 61 0.0 0.0 0.00 0.00 0.00 98 1010.3
20260906111710 70 142 0.0 0.0 0.00 0.00 0.00 99 1010.3
20260906111150 70 108 0.0 1.0 0.00 0.00 0.00 99 1010.4
20260906110630 71 77 0.0 0.0 0.00 0.00 0.00 99 1010.1
20260906110110 70 110 0.0 0.0 0.00 0.00 0.00 99 1009.9
20260906105550 70 125 2.0 3.0 0.00 0.00 0.00 99 1009.9
20260906105030 70 115 0.0 1.0 0.00 0.00 0.00 99 1009.7
20260906104511 71 5 1.0 3.0 0.00 0.00 0.00 99 1009.8
20260906103950 71 18 0.0 0.0 0.00 0.00 0.00 99 1009.7
20260906103430 71 145 2.0 4.0 0.00 0.00 0.00 99 1009.6
20260906102910 71 176 0.0 0.0 0.00 0.00 0.00 99 1009.9
20260906102350 71 285 0.0 0.0 0.00 0.00 0.00 99 1009.7
20260906101830 70 129 0.0 0.0 0.00 0.00 0.00 99 1009.7
20260906101310 71 19 1.0 2.0 0.00 0.00 0.00 99 1009.8
20260906100750 70 6 0.0 0.0 0.00 0.00 0.00 99 1009.8
20260906100230 70 55 0.0 0.0 0.00 0.00 0.00 99 1009.9
20260906095711 70 337 0.0 0.0 0.00 0.00 0.00 99 1009.7
20260906095150 70 197 0.0 2.0 0.00 0.00 0.00 99 1009.8
20260906094630 70 318 1.0 3.0 0.00 0.00 0.00 99 1009.7
20260906094110 70 149 0.0 0.0 0.00 0.00 0.00 99 1009.7
20260906093550 70 291 0.0 0.0 0.00 0.00 0.00 99 1009.5
20260906093030 70 103 0.0 0.0 0.00 0.00 0.00 99 1009.7
20260906092510 70 92 0.0 0.0 0.00 0.00 0.00 99 1009.7
20260906091950 70 94 0.0 2.0 0.00 0.00 0.00 99 1009.6
20260906091430 70 35 0.0 0.0 0.00 0.00 0.00 99 1009.4
20260906090855 70 140 1.0 2.0 0.00 0.00 0.00 99 1009.4
20260906090333 70 79 0.0 0.0 0.00 0.00 0.00 99 1009.5
20260906085815 70 203 0.0 0.0 0.00 0.00 0.00 99 1009.2
20260906085255 70 53 0.0 0.0 0.00 0.00 0.00 99 1009.3
20260906084734 70 122 0.0 0.0 0.00 0.00 0.00 99 1009.3
20260906084215 70 101 0.0 0.0 0.00 0.00 0.00 99 1009.3
20260906083654 70 113 0.0 0.0 0.00 0.00 0.00 99 1009.5
20260906083133 70 156 0.0 0.0 0.00 0.00 0.00 99 1009.4
20260906082614 70 287 0.0 0.0 0.00 0.00 0.00 99 1009.2
20260906082054 70 188 0.0 0.0 0.00 0.00 0.00 99 1009.4
20260906081533 70 43 0.0 0.0 0.00 0.00 0.00 99 1009.4
20260906081015 70 9 0.0 0.0 0.00 0.00 0.00 99 1009.4
20260906080454 70 190 0.0 0.0 0.00 0.00 0.00 99 1009.2
20260906075933 70 49 0.0 0.0 0.00 0.00 0.00 99 1009.3
20260906075414 70 320 0.0 0.0 0.00 0.00 0.00 99 1009.3
20260906074855 70 59 0.0 0.0 0.00 0.00 0.00 99 1008.8
20260906074333 70 88 0.0 0.0 0.00 0.00 0.00 99 1009.1
20260906073815 70 211 0.0 0.0 0.00 0.00 0.00 99 1009.0
20260906072733 70 48 0.0 0.0 0.00 0.00 0.00 99 1009.3
20260906072215 70 169 0.0 0.0 0.00 0.00 0.00 99 1009.0
20260906071118 70 56 0.0 0.0 0.00 0.00 0.00 99 1009.2
20260906070559 70 320 0.0 0.0 0.00 0.00 0.00 99 1009.2
20260906070039 70 321 0.0 0.0 0.00 0.00 0.00 99 1009.0
20260906065519 70 321 0.0 0.0 0.00 0.00 0.00 99 1009.1
20260906064959 70 194 0.0 0.0 0.00 0.00 0.00 99 1009.2
20260906064439 70 194 0.0 0.0 0.00 0.00 0.00 99 1009.3
20260906063918 70 79 0.0 0.0 0.00 0.00 0.00 99 1009.2
20260906063359 70 66 0.0 0.0 0.00 0.00 0.00 99 1009.4
20260906062319 70 161 0.0 0.0 0.00 0.00 0.00 99 1009.3
20260906061759 70 161 0.0 0.0 0.00 0.00 0.00 99 1009.4
20260906061233 70 162 0.0 0.0 0.00 0.00 0.00 99 1009.5
20260906060719 70 176 0.0 0.0 0.00 0.00 0.00 99 1009.4
20260906060159 71 208 0.0 0.0 0.00 0.00 0.00 99 1009.4
20260906054433 71 225 0.0 0.0 0.00 0.00 0.00 98 1009.2
20260906053833 71 225 0.0 0.0 0.00 0.00 0.00 98 1009.6
20260906053327 71 225 0.0 0.0 0.00 0.00 0.00 98 1009.4
20260906052807 72 243 0.0 1.0 0.00 0.00 0.00 97 1009.3
20260906052247 72 78 0.0 0.0 0.00 0.00 0.00 97 1009.3
20260906051733 72 70 0.0 0.0 0.00 0.00 0.00 97 1009.4
20260906051133 72 98 0.0 0.0 0.00 0.00 0.00 97 1009.2
20260906050533 72 271 0.0 0.0 0.00 0.00 0.00 96 1009.2
20260906044734 73 184 0.0 1.0 0.00 0.00 0.00 95 1009.5
20260906044133 73 121 0.0 1.0 0.00 0.00 0.00 95 1009.1
20260906043533 73 21 0.0 1.0 0.00 0.00 0.00 95 1009.1
20260906042933 73 83 0.0 1.0 0.00 0.00 0.00 94 1009.1
20260906042333 73 118 0.0 0.0 0.00 0.00 0.00 94 1009.0
20260906041134 74 106 0.0 0.0 0.00 0.00 0.00 92 1008.8
20260906040533 74 103 0.0 2.0 0.00 0.00 0.00 92 1009.0
20260906034733 75 309 2.0 3.0 0.00 0.00 0.00 92 1009.1
20260906034133 75 233 0.0 0.0 0.00 0.00 0.00 91 1009.1
20260906033533 76 98 0.0 0.0 0.00 0.00 0.00 91 1008.8
20260906032934 76 175 0.0 0.0 0.00 0.00 0.00 90 1008.9
20260906031134 77 179 1.0 2.0 0.00 0.00 0.00 88 1008.6
20260906030533 78 142 0.0 2.0 0.00 0.00 0.00 88 1008.6
20260906025933 78 184 0.0 0.0 0.00 0.00 0.00 87 1008.6
20260906025333 78 96 0.0 1.0 0.00 0.00 0.00 86 1008.5
20260906024733 79 344 0.0 2.0 0.00 0.00 0.00 86 1008.6
20260906024133 79 154 1.0 2.0 0.00 0.00 0.00 86 1008.7
20260906023533 79 103 0.0 0.0 0.00 0.00 0.00 86 1008.5
20260906022933 79 83 0.0 0.0 0.00 0.00 0.00 86 1008.6
20260906022333 79 56 0.0 0.0 0.00 0.00 0.00 86 1008.2
20260906021733 79 55 0.0 1.0 0.00 0.00 0.00 85 1008.2
20260906021133 80 229 1.0 2.0 0.00 0.00 0.00 85 1007.9
20260906020533 80 148 0.0 0.0 0.00 0.00 0.00 84 1008.0
20260906015933 80 87 2.0 4.0 0.00 0.00 0.00 84 1008.0
20260906015334 80 243 1.0 3.0 0.00 0.00 0.00 85 1007.9
20260906014733 81 190 0.0 1.0 0.00 0.00 0.00 87 1007.8
20260906014133 81 106 1.0 2.0 0.00 0.00 0.00 88 1007.7
20260906013533 81 211 1.0 2.0 0.00 0.00 0.00 90 1007.8
20260906012933 81 172 0.0 1.0 0.00 0.00 0.00 91 1007.4
20260906012333 81 35 0.0 0.0 0.00 0.00 0.00 90 1007.3
20260906011733 81 187 1.0 2.0 0.00 0.00 0.00 91 1007.2
20260906011133 81 182 0.0 0.0 0.00 0.00 0.00 90 1007.2
20260906010615 81 352 0.0 0.0 0.00 0.00 0.00 90 1007.0
20260906010055 81 202 0.0 0.0 0.00 0.00 0.00 92 1007.2
20260906005533 80 30 0.0 0.0 0.00 0.00 0.00 93 1006.7
20260906005015 80 228 0.0 2.0 0.00 0.00 0.00 93 1006.9
20260906004456 81 228 0.0 0.0 0.00 0.00 0.00 92 1006.9
20260906003431 81 218 0.0 0.0 0.00 0.00 0.00 91 1006.9
20260906002911 81 218 0.0 0.0 0.00 0.00 0.00 90 1006.8
20260906002352 82 218 0.0 0.0 0.00 0.00 0.00 90 1006.8
20260906001832 82 218 0.0 0.0 0.00 0.00 0.00 89 1007.0
20260906001312 83 218 0.0 0.0 0.00 0.00 0.00 88 1006.9
20260906000751 84 218 0.0 0.0 0.00 0.00 0.00 86 1006.8
20260906000234 84 218 0.0 0.0 0.00 0.00 0.00 85 1006.7
20260905235633 85 218 0.0 0.0 0.00 0.00 0.00 83 1006.8
20260905235119 86 218 0.0 0.0 0.00 0.00 0.00 82 1006.8
20260905234559 87 218 0.0 0.0 0.00 0.00 0.00 81 1006.5
20260905233519 88 341 0.0 0.0 0.00 0.00 0.00 79 1006.5
20260905231920 89 342 0.0 0.0 0.00 0.00 0.00 75 1006.7
20260905231400 90 341 0.0 0.0 0.00 0.00 0.00 74 1006.4
20260905230833 91 341 0.0 0.0 0.00 0.00 0.00 71 1006.6
20260905230319 91 357 0.0 0.0 0.00 0.00 0.00 72 1006.4
20260905225800 92 357 0.0 1.0 0.00 0.00 0.00 68 1006.7
20260905225240 93 47 0.0 1.0 0.00 0.00 0.00 68 1006.3
20260905224720 92 203 0.0 1.0 0.00 0.00 0.00 67 1006.3
20260905224200 93 209 0.0 0.0 0.00 0.00 0.00 68 1006.2
20260905223119 94 226 0.0 1.0 0.00 0.00 0.00 65 1006.2
20260905222600 93 96 0.0 0.0 0.00 0.00 0.00 65 1006.7
20260905222040 93 110 0.0 0.0 0.00 0.00 0.00 68 1006.2
20260905221519 94 311 0.0 1.0 0.00 0.00 0.00 64 1006.5
20260905220440 95 219 0.0 1.0 0.00 0.00 0.00 63 1006.4
20260905215919 96 277 0.0 1.0 0.00 0.00 0.00 61 1006.4
20260905215400 95 272 0.0 1.0 0.00 0.00 0.00 59 1006.3
20260905214840 95 229 1.0 1.0 0.00 0.00 0.00 60 1006.4